Location: Alphen
(52.1351°N, 4.6549°E)
Time: 01:10:48
(UTC+00:00)

Cosmos 836 Rocket - Pass Details

Date: 27 January 2021
Orbit: 758 x 777 km, 74.1° (Epoch: 26 February)

Event Time Altitude Azimuth Distance (km) Brightness Sun altitude
Rises 05:54:18 0° 205° (SSW) 3,232 7.6 -14.4°
Reaches altitude 10° 05:56:40 10° 206° (SSW) 2,306 6.8 -14.0°
Maximum altitude 06:01:55 84° 294° (WNW) 777 4.4 -13.3°
Drops below altitude 10° 06:07:11 10° 24° (NNE) 2,310 7.1 -12.5°
Sets 06:09:33 0° 26° (NNE) 3,238 7.9 -12.1°
